призрачный форум

www.prizrak.ws

Информация о пользователе

Привет, Гость! Войдите или зарегистрируйтесь.


Вы здесь » www.prizrak.ws » Software, ОС, программное обеспечение..


Software, ОС, программное обеспечение..

Тем 48551 страница 48600 из 157565

Тема Ответов Просмотров Последнее сообщение
0 0 2020-04-13 12:54:15  Xue Wang
0 0 2020-04-13 12:53:33  Xue Wang
0 1 2020-04-13 12:53:16  oaxino
48554 STATA v14.2  Xue Wang
0 0 2020-04-13 12:52:14  Xue Wang
0 1 2020-04-13 12:52:14  oaxino
0 2 2020-04-13 12:49:39  oaxino
0 3 2020-04-13 12:37:22  oaxino
0 0 2020-04-13 12:36:50  Xue Wang
48559 Cadence MMSIM v15.10.385  Xue Wang
0 0 2020-04-13 12:36:44  Xue Wang
0 1 2020-04-13 12:36:18  oaxino
0 1 2020-04-13 12:34:28  oaxino
48562 STAB WELL v4.4  Xue Wang
0 0 2020-04-13 12:34:23  Xue Wang
0 1 2020-04-13 12:33:23  oaxino
48564 Cadence MDV 18.03 Linux  Xue Wang
0 0 2020-04-13 12:18:30  Xue Wang
0 0 2020-04-13 12:18:15  Xue Wang
48566 SST.Systems.Caepipe.v7.8  Xue Wang
0 0 2020-04-13 12:16:22  Xue Wang
0 0 2020-04-13 12:01:21  Xue Wang
48568 Cadaplus APLUS v18.034  Xue Wang
0 0 2020-04-13 12:00:01  Xue Wang
48569 SPT wellflo v8.3  Xue Wang
0 0 2020-04-13 11:57:48  Xue Wang
48570 CadLink SignLab v10.0  Xue Wang
0 0 2020-04-13 11:41:52  Xue Wang
0 0 2020-04-13 11:41:40  Xue Wang
48572 SPSQC v7.5  Xue Wang
0 0 2020-04-13 11:37:32  Xue Wang
48573 CablEquity v2013  Xue Wang
0 0 2020-04-13 11:24:15  Xue Wang
48574 Inertial Explorer v8.50  Xue Wang
0 0 2020-04-13 11:22:59  Xue Wang
0 2 2020-04-13 11:21:15  oaxino
48576 SPEOS v2018.1.0 x64  Xue Wang
0 0 2020-04-13 11:20:24  Xue Wang
48577 NI FlexLogger 2020 R2  oaxino
0 1 2020-04-13 11:19:28  oaxino
0 2 2020-04-13 11:18:25  oaxino
0 1 2020-04-13 11:17:06  oaxino
0 2 2020-04-13 11:14:32  oaxino
48581 CYMGRD v6.51  Xue Wang
0 0 2020-04-13 11:05:10  Xue Wang
0 0 2020-04-13 11:03:51  Xue Wang
0 0 2020-04-13 11:00:59  Xue Wang
48584 CYMCAP 7.2  Xue Wang
0 0 2020-04-13 10:46:09  Xue Wang
48585 Indusoft web studio v8.1  Xue Wang
0 0 2020-04-13 10:46:04  Xue Wang
0 0 2020-04-13 10:42:32  Xue Wang
0 0 2020-04-13 10:27:15  Xue Wang
48588 CX Supervisor v3.24  Xue Wang
0 0 2020-04-13 10:24:45  Xue Wang
48589 SPACE-E.v5.4  Xue Wang
0 0 2020-04-13 10:23:11  Xue Wang
48590 ImpactCAD v2019  Xue Wang
0 0 2020-04-13 10:07:48  Xue Wang
0 0 2020-04-13 10:05:15  Xue Wang
48592 SOFTWARE ENGINEERING  Xue Wang
0 1 2020-04-13 10:04:32  Xue Wang
0 3 2020-04-13 09:52:55  oaxino
0 2 2020-04-13 09:51:30  oaxino
0 2 2020-04-13 09:50:45  oaxino
48596 Imagestation SSK v2015  Xue Wang
0 1 2020-04-13 09:49:14  Xue Wang
0 9 2020-04-13 09:47:29  oaxino
0 1 2020-04-13 09:45:51  Xue Wang
48599 CUP Tower.V2.0  Xue Wang
0 1 2020-04-13 09:45:43  Xue Wang
48600 ImageToSEGY v1.6  Xue Wang
0 1 2020-04-13 09:29:24  Xue Wang

Вы здесь » www.prizrak.ws » Software, ОС, программное обеспечение..